P/2004 T1 ( LINEAR-NEAT )

Japanese version
Home page
Updated on April 23, 2005

---------------------------------------------------------------------

* Profile

Discovery Date October 5, 2004
Magnitude 17.2 and 15.2 mag
Discoverer Lincoln Laboratory Near-Earth Asteroid Research project, Near-Earth-Asteroid Tracking Team (Jet Propulsion Laboratory)

* Pictures

* Orbital Elements

Epoch 2004 Nov. 11.0 TT = JDT 2453320.5
T 2004 Nov. 7.77087 TT                                  MPC
q   1.7095436            (2000.0)            P               Q
n   0.15234539     Peri.  336.52398     +0.87730946     -0.45596347
a   3.4720276      Node    51.46066     +0.46506484     +0.73065276
e   0.5076238      Incl.   11.03762     +0.11850234     +0.50817699
P   6.47
>From 329 observations 2004 July 16-Nov. 19, mean residual 0".63.

* Finding Charts

* Magnitudes Graph

        m1 = 6.5 + 5 log d + 35 log r(t + 25)

---------------------------------------------------------------------

The orbital elements are published on M.P.E.C. 2004-W14.
The charts are made with StellaNavigator Ver.2.0 for Windows (AstroArts / ASCII).
The magnitudes graphs are made with Comet for Windows.

---------------------------------------------------------------------

Copyright(C) Seiichi Yoshida (comet@aerith.net). All rights reserved.